Weather History for Silver City, NM

Change the Weather History Date:

Sunday, October 21, 2012

  Actual Average (KDMN) Record (KDMN)
Temperature  
Mean Temperature 60 °F 60 °F  
Max Temperature 75 °F 76 °F 87 °F (1952)
Min Temperature 46 °F 43 °F 27 °F (1949)
Degree Days  
Heating Degree Days 4    
Growing Degree Days 10 (Base 50)    
Moisture  
Dew Point 34 °F    
Average Humidity 40    
Maximum Humidity 62    
Minimum Humidity 20    
Precipitation  
Precipitation 0.00 in 0.03 in 0.52 in (1984)
Month to date precipitation 0.82  
Year to date precipitation 9.71  
Sea Level Pressure  
Sea Level Pressure 30.05 in    
Wind  
Wind Speed 10 mph (WNW)    
Max Wind Speed 16 mph    
Max Gust Speed 23 mph    
Visibility 10 miles    
Events      
T = Trace of Precipitation, MM = Missing Value Source: NWS Daily Summary

Daily Weather History Graph

Daily Weather History Graph

Search for Another Location

Airport:

Trip Planner

Search our weather history database for the weather conditions in past years. The results will help you decide how hot, cold, wet, or windy it might be!

Date:

Astronomy

Oct. 21, 2012 Rise Set
Actual Time 7:21 AM MDT 6:32 PM MDT
Civil Twilight 6:56 AM MDT 6:57 PM MDT
Nautical Twilight 6:27 AM MDT 7:25 PM MDT
Astronomical Twilight 5:59 AM MDT 7:54 PM MDT
Moon 1:38 PM MDT (10/21) No Moon Set
Length of Visible Light 12h 00m
Length of Day
11h 10m
Waxing Crescent, 46% of the Moon is Illuminated
Oct 21
Waxing Crescent
Oct 21
First Quarter
Oct 29
Full
Nov 6
Last Quarter
Nov 13
New

Hourly Weather History & Observations

Time (MDT) Temp. Windchill Dew Point Humidity Pressure Visibility Wind Dir Wind Speed Gust Speed Precip Events Conditions
12:15 AM 55.4 °F - 30.2 °F 38% 30.03 in 10.0 mi NNW 12.7 mph - N/A   Clear
12:35 AM 55.4 °F - 30.2 °F 38% 30.03 in 10.0 mi NNW 11.5 mph - N/A   Clear
12:55 AM 55.4 °F - 32.0 °F 41% 30.03 in 10.0 mi NNW 10.4 mph - N/A   Clear
1:15 AM 53.6 °F - 32.0 °F 44% 30.03 in 10.0 mi NNW 8.1 mph - N/A   Clear
1:35 AM 51.8 °F - 32.0 °F 47% 30.03 in 10.0 mi North 9.2 mph - N/A   Clear
1:55 AM 50.0 °F - 32.0 °F 50% 30.03 in 10.0 mi North 9.2 mph - N/A   Clear
2:15 AM 48.2 °F - 32.0 °F 54% 30.03 in 10.0 mi North 10.4 mph - N/A   Clear
2:35 AM 48.2 °F - 32.0 °F 54% 30.03 in 10.0 mi North 10.4 mph - N/A   Clear
2:55 AM 48.2 °F - 32.0 °F 54% 30.03 in 10.0 mi NNW 9.2 mph - N/A   Clear
3:15 AM 48.2 °F - 32.0 °F 54% 30.03 in 10.0 mi NNW 10.4 mph - N/A   Clear
3:35 AM 53.6 °F - 32.0 °F 44% 30.03 in 10.0 mi NNW 9.2 mph - N/A   Clear
3:55 AM 50.0 °F - 32.0 °F 50% 30.03 in 10.0 mi NNW 9.2 mph - N/A   Clear
4:15 AM 48.2 °F - 32.0 °F 54% 30.03 in 10.0 mi NNW 9.2 mph - N/A   Clear
4:35 AM 48.2 °F - 32.0 °F 54% 30.03 in 10.0 mi North 8.1 mph - N/A   Clear
4:55 AM 46.4 °F 42.4 °F 32.0 °F 57% 30.04 in 10.0 mi North 8.1 mph - N/A   Clear
5:15 AM 46.4 °F 41.9 °F 32.0 °F 57% 30.04 in 10.0 mi North 9.2 mph - N/A   Clear
5:35 AM 46.4 °F 41.5 °F 32.0 °F 57% 30.05 in 10.0 mi North 10.4 mph - N/A   Clear
5:55 AM 48.2 °F - 33.8 °F 58% 30.05 in 10.0 mi North 9.2 mph - N/A   Clear
6:15 AM 48.2 °F - 33.8 °F 58% 30.06 in 10.0 mi North 8.1 mph - N/A   Clear
6:35 AM 46.4 °F 42.4 °F 33.8 °F 62% 30.06 in 10.0 mi North 8.1 mph - N/A   Clear
6:55 AM 46.4 °F 41.9 °F 33.8 °F 62% 30.06 in 10.0 mi North 9.2 mph - N/A   Clear
7:15 AM 46.4 °F 41.9 °F 33.8 °F 62% 30.07 in 10.0 mi North 9.2 mph - N/A   Clear
7:35 AM 48.2 °F - 35.6 °F 62% 30.07 in 10.0 mi North 9.2 mph - N/A   Clear
7:55 AM 50.0 °F - 35.6 °F 58% 30.08 in 10.0 mi North 8.1 mph - N/A   Clear
8:15 AM 55.4 °F - 35.6 °F 47% 30.08 in 10.0 mi North 5.8 mph - N/A   Clear
8:55 AM 62.6 °F - 37.4 °F 39% 30.10 in 10.0 mi NNW 8.1 mph - N/A   Clear
9:15 AM 64.4 °F - 37.4 °F 37% 30.10 in 10.0 mi NW 8.1 mph - N/A   Clear
9:55 AM 66.2 °F - 39.2 °F 37% 30.11 in 10.0 mi NW 5.8 mph - N/A   Clear
10:15 AM 66.2 °F - 39.2 °F 37% 30.11 in 10.0 mi SSW 4.6 mph - N/A   Clear
10:55 AM 68.0 °F - 39.2 °F 35% 30.10 in 10.0 mi SSW 6.9 mph - N/A   Clear
11:15 AM 69.8 °F - 37.4 °F 31% 30.10 in 10.0 mi WSW 5.8 mph - N/A   Clear
11:35 AM 71.6 °F - 33.8 °F 25% 30.10 in 10.0 mi West 12.7 mph 17.3 mph N/A   Clear
11:55 AM 71.6 °F - 32.0 °F 23% 30.09 in 10.0 mi WSW 10.4 mph 17.3 mph N/A   Clear
12:15 PM 71.6 °F - 32.0 °F 23% 30.09 in 10.0 mi WSW 11.5 mph 19.6 mph N/A   Clear
12:35 PM 71.6 °F - 32.0 °F 23% 30.08 in 10.0 mi SW 12.7 mph 20.7 mph N/A   Clear
12:55 PM 73.4 °F - 32.0 °F 22% 30.07 in 10.0 mi SW 13.8 mph 18.4 mph N/A   Clear
1:15 PM 73.4 °F - 32.0 °F 22% 30.06 in 10.0 mi West 10.4 mph 21.9 mph N/A   Clear
1:35 PM 73.4 °F - 32.0 °F 22% 30.05 in 10.0 mi WSW 11.5 mph 20.7 mph N/A   Clear
1:55 PM 73.4 °F - 30.2 °F 20% 30.04 in 10.0 mi WSW 13.8 mph 18.4 mph N/A   Clear
2:35 PM 73.4 °F - 32.0 °F 22% 30.02 in 10.0 mi West 9.2 mph 23.0 mph N/A   Clear
2:55 PM 75.2 °F - 32.0 °F 21% 30.03 in 10.0 mi West 12.7 mph 21.9 mph N/A   Clear
3:15 PM 73.4 °F - 32.0 °F 22% 30.03 in 10.0 mi West 10.4 mph 19.6 mph N/A   Clear
3:35 PM 73.4 °F - 32.0 °F 22% 30.03 in 10.0 mi SW 12.7 mph 20.7 mph N/A   Clear
4:35 PM 73.4 °F - 32.0 °F 22% 30.04 in 10.0 mi West 11.5 mph - N/A   Clear
4:55 PM 71.6 °F - 35.6 °F 27% 30.03 in 10.0 mi SW 8.1 mph 17.3 mph N/A   Clear
5:15 PM 71.6 °F - 37.4 °F 29% 30.04 in 10.0 mi SW 10.4 mph - N/A   Clear
5:35 PM 71.6 °F - 37.4 °F 29% 30.03 in 10.0 mi SSW 15.0 mph 20.7 mph N/A   Partly Cloudy
5:55 PM 71.6 °F - 35.6 °F 27% 30.03 in 10.0 mi SSW 16.1 mph 20.7 mph N/A   Clear
6:15 PM 69.8 °F - 37.4 °F 31% 30.03 in 10.0 mi SSW 15.0 mph - N/A   Clear
6:35 PM 68.0 °F - 35.6 °F 30% 30.03 in 10.0 mi SSW 11.5 mph - N/A   Scattered Clouds
6:55 PM 68.0 °F - 35.6 °F 30% 30.03 in 10.0 mi SSW 13.8 mph 18.4 mph N/A   Partly Cloudy
7:15 PM 66.2 °F - 35.6 °F 32% 30.05 in 10.0 mi South 15.0 mph - N/A   Clear
7:35 PM 64.4 °F - 35.6 °F 34% 30.05 in 10.0 mi South 9.2 mph - N/A   Clear
7:55 PM 62.6 °F - 35.6 °F 37% 30.05 in 10.0 mi South 9.2 mph - N/A   Clear
8:35 PM 59.0 °F - 35.6 °F 42% 30.06 in 10.0 mi ESE 8.1 mph - N/A   Clear
8:55 PM 59.0 °F - 35.6 °F 42% 30.05 in 10.0 mi ESE 5.8 mph - N/A   Clear
9:15 PM 59.0 °F - 35.6 °F 42% 30.06 in 10.0 mi South 8.1 mph - N/A   Clear
9:35 PM 59.0 °F - 35.6 °F 42% 30.06 in 10.0 mi South 4.6 mph - N/A   Partly Cloudy
10:15 PM 59.0 °F - 33.8 °F 39% 30.06 in 10.0 mi Calm Calm - N/A   Scattered Clouds
10:35 PM 57.2 °F - 33.8 °F 41% 30.07 in 10.0 mi SSW 3.5 mph - N/A   Partly Cloudy
10:55 PM 55.4 °F - 33.8 °F 44% 30.06 in 10.0 mi Calm Calm - N/A   Clear
11:35 PM 53.6 °F - 32.0 °F 44% 30.06 in 10.0 mi NNE 5.8 mph - N/A   Clear
11:55 PM 50.0 °F - 32.0 °F 50% 30.06 in 10.0 mi East 4.6 mph - N/A   Clear